Time,TemperatureF,DewpointF,PressureIn,WindDirection,WindDirectionDegrees,WindSpeedMPH,WindSpeedGustMPH,Humidity,HourlyPrecipIn,Conditions,Clouds,dailyrainin,SoftwareType,DateUTC
2013-08-06 01:00:00,58.0,54.0,30.08,North,-999,-999.0,-999.0,86,-99.99,,,-99.99,,2013-08-06 09:00:00,
2013-08-06 03:00:00,57.0,53.0,30.08,North,-999,-999.0,-999.0,86,-99.99,,,-99.99,,2013-08-06 11:00:00,
2013-08-06 03:53:00,57.0,53.0,30.08,North,-999,-999.0,-999.0,86,-99.99,,,-99.99,,2013-08-06 11:53:00,
2013-08-06 04:00:00,57.0,52.0,30.08,North,-999,-999.0,-999.0,83,-99.99,,,-99.99,,2013-08-06 12:00:00,
2013-08-06 04:52:00,57.0,52.0,30.08,North,-999,-999.0,-999.0,83,-99.99,,,-99.99,,2013-08-06 12:52:00,
2013-08-06 05:00:00,56.0,52.0,30.08,North,-999,-999.0,-999.0,86,-99.99,,,-99.99,,2013-08-06 13:00:00,
2013-08-06 06:00:00,56.0,52.0,30.08,North,-999,-999.0,-999.0,86,-99.99,,,-99.99,,2013-08-06 14:00:00,
2013-08-06 06:53:00,56.0,52.0,30.08,North,-999,-999.0,-999.0,86,-99.99,,,-99.99,,2013-08-06 14:53:00,
2013-08-06 08:00:00,56.0,51.0,30.08,North,-999,-999.0,-999.0,83,-99.99,,,-99.99,,2013-08-06 16:00:00,
2013-08-06 09:00:00,57.0,51.0,30.08,North,-999,-999.0,-999.0,80,-99.99,,,-99.99,,2013-08-06 17:00:00,
2013-08-06 09:52:00,57.0,51.0,30.08,North,-999,-999.0,-999.0,80,-99.99,,,-99.99,,2013-08-06 17:52:00,
2013-08-06 11:00:00,64.0,53.0,30.07,North,-999,-999.0,-999.0,67,-99.99,,,-99.99,,2013-08-06 19:00:00,
2013-08-06 12:00:00,69.0,54.0,30.07,North,-999,-999.0,-999.0,58,-99.99,,,-99.99,,2013-08-06 20:00:00,
2013-08-06 13:00:00,68.0,55.0,30.07,North,-999,-999.0,-999.0,63,-99.99,,,-99.99,,2013-08-06 21:00:00,
2013-08-06 14:00:00,64.0,57.0,30.06,North,-999,-999.0,-999.0,77,-99.99,,,-99.99,,2013-08-06 22:00:00,
2013-08-06 14:52:00,64.0,57.0,30.06,North,-999,-999.0,-999.0,77,-99.99,,,-99.99,,2013-08-06 22:52:00,
2013-08-06 15:00:00,62.0,56.0,30.04,North,-999,-999.0,-999.0,80,-99.99,,,-99.99,,2013-08-06 23:00:00,
2013-08-06 15:52:00,62.0,56.0,30.04,North,-999,-999.0,-999.0,80,-99.99,,,-99.99,,2013-08-06 23:52:00,
2013-08-06 17:00:00,63.0,57.0,30.01,North,-999,-999.0,-999.0,80,-99.99,,,-99.99,,2013-08-07 01:00:00,
2013-08-06 18:00:00,64.0,57.0,30.00,North,-999,-999.0,-999.0,77,-99.99,,,-99.99,,2013-08-07 02:00:00,
2013-08-06 18:53:00,64.0,57.0,30.00,North,-999,-999.0,-999.0,77,-99.99,,,-99.99,,2013-08-07 02:53:00,
2013-08-06 19:00:00,65.0,55.0,29.99,North,-999,-999.0,-999.0,70,-99.99,,,-99.99,,2013-08-07 03:00:00,
2013-08-06 19:52:00,65.0,55.0,29.99,North,-999,-999.0,-999.0,70,-99.99,,,-99.99,,2013-08-07 03:52:00,
2013-08-06 20:00:00,67.0,54.0,29.99,North,-999,-999.0,-999.0,63,-99.99,,,-99.99,,2013-08-07 04:00:00,
2013-08-06 20:52:00,67.0,54.0,29.99,North,-999,-999.0,-999.0,63,-99.99,,,-99.99,,2013-08-07 04:52:00,
2013-08-06 22:00:00,62.0,55.0,29.99,North,-999,-999.0,-999.0,77,-99.99,,,-99.99,,2013-08-07 06:00:00,
2013-08-06 22:52:00,62.0,55.0,29.99,North,-999,-999.0,-999.0,77,-99.99,,,-99.99,,2013-08-07 06:52:00,
2013-08-06 23:00:00,62.0,55.0,29.99,North,-999,-999.0,-999.0,77,-99.99,,,-99.99,,2013-08-07 07:00:00,
2013-08-06 23:52:00,62.0,55.0,29.99,North,-999,-999.0,-999.0,77,-99.99,,,-99.99,,2013-08-07 07:52:00,